Location: Alta
(39.2070°N, 120.8111°W)
Time: 20:41:28
(UTC+00:00)

POLYITAN 1 - Pass Details

Date: 06 April 2023
Orbit: 575 x 592 km, 98.0° (Epoch: 01 June)

Event Time Altitude Azimuth Distance (km) Brightness Sun altitude
Rises 10:37:18 0° 7° (N) 2,806 ? -32.5°
Reaches altitude 10° 10:39:29 10° 3° (N) 1,899 ? -32.2°
Enters shadow 10:40:24 16° 0° (N) 1,535 ? -32.0°
